User: anonymous   Login
Location: Ladysmith
(45.4630°N, 91.1040°W)
Time: 09:52:23
(UTC-06:00)
Language:

SO-67 - Orbit

View from above orbital plane
View from above orbital plane
View from above satellite
View from above satellite

Ground track
Ground track

The orbit data is extracted from the following two-line orbital elements,

1 35870U 09049F   17051.09441557  .00006180  00000-0  10423-3 0  9992
2 35870  97.1096  68.9494 0003963 115.9834 328.6009 15.52012033415054
Epoch (UTC): 20 February 2017 02:15:57
Eccentricity: 0.0003963
inclination: 97.1096°
perigee height: 408 km
apogee height: 413 km
right ascension of ascending node: 68.9494°
argument of perigee: 115.9834°
revolutions per day: 15.52012033
mean anomaly at epoch: 328.6009°
orbit number at epoch: 41505

The dashed part of the orbit path shows where the satellite is in the earth's shadow,  

DLR